Manistique, MI

8:11 PM EDT on October 22, 2017 (GMT -0400)
Schoolcraft County

Weather History for KISQ - December, 2011

Change the Weather History Date:

Friday, December 30, 2011

  Actual Average Record
Temperature  
Mean Temperature 30 °F -  
Max Temperature 32 °F 26 °F 46 °F (1979)
Min Temperature 28 °F 9 °F -25 °F (1976)
Degree Days  
Heating Degree Days 35    
Moisture  
Dew Point 27 °F    
Average Humidity 91    
Maximum Humidity 93    
Minimum Humidity 86    
Precipitation  
Precipitation 0.00 in - - ()
Sea Level Pressure  
Sea Level Pressure 29.72 in    
Wind  
Wind Speed 6 mph (NNE)    
Max Wind Speed 10 mph    
Max Gust Speed -    
Visibility 6 miles    
Events Snow    
Averages and records for this station are not official NWS values.
T = Trace of Precipitation, MM = Missing Value Source: NWS Daily Summary

Daily Weather History Graph

Daily Weather History Graph

Search for Another Location

Airport or City:

Trip Planner

Search our weather history database for the weather conditions in past years. The results will help you decide how hot, cold, wet, or windy it might be!

Date:

Astronomy

Dec. 30, 2011 Rise Set
Actual Time 8:26 AM EST 5:08 PM EST
Civil Twilight 7:51 AM EST 5:42 PM EST
Nautical Twilight 7:13 AM EST 6:20 PM EST
Astronomical Twilight 6:37 AM EST 6:56 PM EST
Moon 11:24 AM EST (12/30) No Moon Set
Length of Visible Light 9h 50m
Length of Day
8h 41m
Waxing Crescent, 35% of the Moon is Illuminated
Dec 30
Waxing Crescent
Jan 1
First Quarter
Jan 9
Full
Jan 16
Last Quarter
Jan 23
New

Hourly Weather History & Observations

Time (EST) Temp. Windchill Dew Point Humidity Pressure Visibility Wind Dir Wind Speed Gust Speed Precip Events Conditions
12:15 AM 32.0 °F 25.6 °F 28.4 °F 87% 29.65 in 10.0 mi East 6.9 mph - N/A   Overcast
12:34 AM 30.2 °F 22.6 °F 28.4 °F 93% 29.65 in 10.0 mi East 8.1 mph - N/A   Overcast
12:54 AM 30.2 °F 21.3 °F 28.4 °F 93% 29.65 in 10.0 mi East 10.4 mph - N/A   Overcast
1:14 AM 30.2 °F 24.3 °F 28.4 °F 93% 29.66 in 10.0 mi East 5.8 mph - N/A   Overcast
1:34 AM 30.2 °F 24.3 °F 28.4 °F 93% 29.66 in 10.0 mi East 5.8 mph - N/A   Overcast
1:54 AM 30.2 °F 23.4 °F 28.4 °F 93% 29.66 in 5.0 mi East 6.9 mph - N/A   Overcast
2:15 AM 30.2 °F 24.3 °F 28.4 °F 93% 29.67 in 3.0 mi East 5.8 mph - N/A   Overcast
2:34 AM 30.2 °F 24.3 °F 28.4 °F 93% 29.67 in 3.0 mi East 5.8 mph - N/A   Overcast
2:55 AM 30.2 °F 23.4 °F 26.6 °F 86% 29.67 in 4.0 mi East 6.9 mph - N/A   Overcast
3:14 AM 30.2 °F 23.4 °F 26.6 °F 86% 29.68 in 3.0 mi East 6.9 mph - N/A Snow Light Snow
3:55 AM 30.2 °F 26.7 °F 26.6 °F 86% 29.69 in 4.0 mi North 3.5 mph - N/A Snow Light Snow
4:34 AM 30.2 °F - 26.6 °F 86% 29.69 in 5.0 mi Calm Calm - N/A Snow Light Snow
4:55 AM 30.2 °F 26.7 °F 26.6 °F 86% 29.69 in 7.0 mi NNW 3.5 mph - N/A Snow Light Snow
5:14 AM 28.4 °F 24.6 °F 26.6 °F 93% 29.69 in 10.0 mi North 3.5 mph - N/A Snow Light Snow
5:34 AM 28.4 °F 23.3 °F 26.6 °F 93% 29.68 in 10.0 mi North 4.6 mph - N/A   Overcast
5:54 AM 28.4 °F 24.6 °F 26.6 °F 93% 29.68 in 10.0 mi North 3.5 mph - N/A   Overcast
6:14 AM 28.4 °F 22.2 °F 26.6 °F 93% 29.69 in 10.0 mi North 5.8 mph - N/A   Overcast
6:35 AM 28.4 °F 21.2 °F 26.6 °F 93% 29.70 in 10.0 mi North 6.9 mph - N/A   Overcast
7:14 AM 28.4 °F 21.2 °F 26.6 °F 93% 29.70 in 10.0 mi North 6.9 mph - N/A   Overcast
8:34 AM 28.4 °F 22.2 °F 26.6 °F 93% 29.72 in 3.0 mi NNE 5.8 mph - N/A   Overcast
8:54 AM 28.4 °F 23.3 °F 26.6 °F 93% 29.72 in 1.8 mi NNE 4.6 mph - N/A   Overcast
9:15 AM 28.4 °F 22.2 °F 26.6 °F 93% 29.72 in 1.8 mi NNE 5.8 mph - N/A   Overcast
9:34 AM 28.4 °F 23.3 °F 26.6 °F 93% 29.72 in 1.2 mi NE 4.6 mph - N/A   Overcast
10:15 AM 28.4 °F 23.3 °F 26.6 °F 93% 29.72 in 1.5 mi NNE 4.6 mph - N/A   Overcast
10:34 AM 28.4 °F 23.3 °F 26.6 °F 93% 29.72 in 1.5 mi NE 4.6 mph - N/A   Overcast
10:54 AM 28.4 °F 24.6 °F 26.6 °F 93% 29.72 in 1.8 mi NE 3.5 mph - N/A   Overcast
11:14 AM 28.4 °F 22.2 °F 26.6 °F 93% 29.72 in 1.8 mi NNE 5.8 mph - N/A   Overcast
11:34 AM 30.2 °F 25.4 °F 26.6 °F 86% 29.71 in 1.8 mi NE 4.6 mph - N/A   Overcast
11:55 AM 30.2 °F 26.7 °F 28.4 °F 93% 29.71 in 2.0 mi NE 3.5 mph - N/A   Overcast
12:15 PM 30.2 °F 25.4 °F 28.4 °F 93% 29.70 in 3.0 mi ENE 4.6 mph - N/A   Overcast
12:34 PM 30.2 °F 24.3 °F 28.4 °F 93% 29.69 in 3.0 mi NE 5.8 mph - N/A   Overcast
12:55 PM 32.0 °F 26.4 °F 28.4 °F 87% 29.69 in 4.0 mi NE 5.8 mph - N/A   Overcast
1:14 PM 32.0 °F 27.5 °F 30.2 °F 93% 29.68 in 7.0 mi NE 4.6 mph - N/A   Overcast
2:14 PM 32.0 °F 26.4 °F 28.4 °F 87% 29.69 in 10.0 mi North 5.8 mph - N/A   Overcast
2:35 PM 32.0 °F 28.7 °F 28.4 °F 87% 29.70 in 10.0 mi NE 3.5 mph - N/A   Overcast
2:54 PM 32.0 °F 28.7 °F 28.4 °F 87% 29.70 in 10.0 mi North 3.5 mph - N/A   Overcast
3:15 PM 30.2 °F 23.4 °F 28.4 °F 93% 29.71 in 10.0 mi North 6.9 mph - N/A   Overcast
3:35 PM 30.2 °F 23.4 °F 28.4 °F 93% 29.71 in 10.0 mi North 6.9 mph - N/A   Overcast
3:54 PM 30.2 °F 24.3 °F 28.4 °F 93% 29.72 in 10.0 mi North 5.8 mph - N/A   Overcast
4:15 PM 30.2 °F 23.4 °F 28.4 °F 93% 29.72 in 10.0 mi North 6.9 mph - N/A   Overcast
4:34 PM 30.2 °F 22.6 °F 28.4 °F 93% 29.73 in 5.0 mi North 8.1 mph - N/A   Overcast
4:54 PM 30.2 °F 24.3 °F 28.4 °F 93% 29.73 in 4.0 mi North 5.8 mph - N/A   Overcast
5:15 PM 30.2 °F 22.6 °F 28.4 °F 93% 29.74 in 4.0 mi NNE 8.1 mph - N/A   Overcast
5:34 PM 30.2 °F 21.9 °F 28.4 °F 93% 29.74 in 4.0 mi North 9.2 mph - N/A   Overcast
5:54 PM 30.2 °F 22.6 °F 28.4 °F 93% 29.74 in 7.0 mi North 8.1 mph - N/A   Overcast
6:15 PM 30.2 °F 23.4 °F 26.6 °F 86% 29.74 in 5.0 mi NNE 6.9 mph - N/A   Overcast
6:34 PM 30.2 °F 22.6 °F 26.6 °F 86% 29.75 in 5.0 mi North 8.1 mph - N/A   Overcast
6:55 PM 30.2 °F 22.6 °F 26.6 °F 86% 29.75 in 3.0 mi North 8.1 mph - N/A   Overcast
7:14 PM 28.4 °F 21.2 °F 26.6 °F 93% 29.75 in 7.0 mi NNE 6.9 mph - N/A   Overcast
7:34 PM 30.2 °F 24.3 °F 26.6 °F 86% 29.76 in 7.0 mi NNE 5.8 mph - N/A   Overcast
7:55 PM 30.2 °F 25.4 °F 26.6 °F 86% 29.77 in 7.0 mi NNE 4.6 mph - N/A   Overcast
8:14 PM 30.2 °F 24.3 °F 26.6 °F 86% 29.77 in 7.0 mi NE 5.8 mph - N/A   Overcast
8:34 PM 30.2 °F - 26.6 °F 86% 29.77 in 7.0 mi Calm Calm - N/A   Overcast
8:55 PM 28.4 °F 22.2 °F 26.6 °F 93% 29.77 in 7.0 mi NNE 5.8 mph - N/A   Overcast
9:14 PM 28.4 °F 22.2 °F 26.6 °F 93% 29.78 in 7.0 mi North 5.8 mph - N/A   Overcast
9:34 PM 28.4 °F 22.2 °F 26.6 °F 93% 29.78 in 7.0 mi North 5.8 mph - N/A   Overcast
9:55 PM 28.4 °F 24.6 °F 26.6 °F 93% 29.78 in 7.0 mi NNE 3.5 mph - N/A   Overcast
10:14 PM 28.4 °F 24.6 °F 26.6 °F 93% 29.78 in 10.0 mi North 3.5 mph - N/A   Overcast
10:35 PM 28.4 °F 21.2 °F 26.6 °F 93% 29.78 in 7.0 mi North 6.9 mph - N/A   Overcast
10:55 PM 28.4 °F 21.2 °F 26.6 °F 93% 29.78 in 7.0 mi NNE 6.9 mph - N/A   Overcast
11:14 PM 28.4 °F 21.2 °F 26.6 °F 93% 29.78 in 7.0 mi North 6.9 mph - N/A   Overcast
11:35 PM 28.4 °F 22.2 °F 26.6 °F 93% 29.78 in 7.0 mi North 5.8 mph - N/A   Overcast
11:55 PM 28.4 °F 22.2 °F 26.6 °F 93% 29.78 in 7.0 mi NNE 5.8 mph - N/A   Overcast